Location: Seven Kings
(51.5667°N, 0.1000°E)
Time: 03:35:15
(UTC+00:00)

Cosmos 44 - Pass Details

Date: 29 October 2020
Orbit: 578 x 784 km, 65.1° (Epoch: 24 November)

Event Time Altitude Azimuth Distance (km) Brightness Sun altitude
Rises 17:21:09 0° 209° (SSW) 2,871 7.2 -7.4°
Reaches altitude 10° 17:23:22 10° 207° (SSW) 1,997 6.3 -7.7°
Maximum altitude 17:27:49 64° 126° (SE) 727 3.2 -8.4°
Drops below altitude 10° 17:32:37 10° 46° (NE) 2,139 5.3 -9.1°
Enters shadow 17:33:24 - 45° (NE) 2,443 5.6 -9.2°
